TimeEST,TemperatureF,Dew PointF,Humidity,Sea Level PressureIn,VisibilityMPH,Wind Direction,Wind SpeedMPH,Gust SpeedMPH,PrecipitationIn,Events,Conditions,WindDirDegrees,DateUTC
12:06 AM,46.4,44.6,93,29.90,1.2,Calm,Calm,-,N/A,,Overcast,0,2012-12-17 05:06:00
1:09 AM,46.4,44.6,93,29.85,1.2,Calm,Calm,-,N/A,,Overcast,0,2012-12-17 06:09:00
1:30 AM,46.4,44.6,93,29.84,1.0,ESE,5.8,-,N/A,,Overcast,110,2012-12-17 06:30:00
1:51 AM,46.4,46.4,100,29.85,1.8,Calm,Calm,-,N/A,,Overcast,0,2012-12-17 06:51:00
2:12 AM,46.4,46.4,100,29.85,1.2,Calm,Calm,-,N/A,,Overcast,0,2012-12-17 07:12:00
2:36 AM,46.4,44.6,93,29.85,1.0,Calm,Calm,-,N/A,,Overcast,0,2012-12-17 07:36:00
2:57 AM,46.4,44.6,93,29.85,0.8,Calm,Calm,-,N/A,,Overcast,0,2012-12-17 07:57:00
3:18 AM,46.4,46.4,100,29.86,1.0,NW,12.7,16.1,N/A,,Overcast,310,2012-12-17 08:18:00
3:39 AM,46.4,46.4,100,29.85,1.5,Calm,Calm,-,N/A,,Overcast,0,2012-12-17 08:39:00
4:00 AM,46.4,46.4,100,29.83,0.8,Calm,Calm,-,N/A,,Overcast,0,2012-12-17 09:00:00
4:21 AM,46.4,46.4,100,29.83,0.8,Calm,Calm,-,N/A,,Overcast,0,2012-12-17 09:21:00
4:42 AM,46.4,44.6,93,29.83,0.5,Calm,Calm,-,N/A,,Overcast,0,2012-12-17 09:42:00
5:03 AM,46.4,46.4,100,29.83,0.5,Calm,Calm,-,N/A,,Overcast,0,2012-12-17 10:03:00
5:24 AM,46.4,46.4,100,29.83,0.5,Calm,Calm,-,N/A,,Overcast,0,2012-12-17 10:24:00
5:45 AM,46.4,46.4,100,29.83,0.8,Calm,Calm,-,N/A,,Overcast,0,2012-12-17 10:45:00
6:09 AM,46.4,46.4,100,29.83,0.8,East,3.5,-,N/A,,Overcast,100,2012-12-17 11:09:00
6:30 AM,46.4,46.4,100,29.84,0.8,Calm,Calm,-,N/A,,Overcast,0,2012-12-17 11:30:00
6:51 AM,46.4,46.4,100,29.84,0.5,Calm,Calm,-,N/A,,Overcast,0,2012-12-17 11:51:00
7:09 AM,46.4,46.4,100,29.84,0.5,Calm,Calm,-,N/A,,Overcast,0,2012-12-17 12:09:00
7:33 AM,46.4,46.4,100,29.83,0.2,Calm,Calm,-,N/A,,Overcast,0,2012-12-17 12:33:00
7:54 AM,48.2,46.4,93,29.84,0.5,Calm,Calm,-,N/A,,Overcast,0,2012-12-17 12:54:00
8:15 AM,48.2,46.4,93,29.85,0.5,Calm,Calm,-,N/A,,Overcast,0,2012-12-17 13:15:00
8:36 AM,48.2,46.4,93,29.85,1.2,Calm,Calm,-,N/A,,Overcast,0,2012-12-17 13:36:00
8:57 AM,48.2,46.4,93,29.85,1.2,NNE,3.5,-,N/A,,Overcast,20,2012-12-17 13:57:00
9:39 AM,48.2,46.4,93,29.88,3.0,North,3.5,-,N/A,,Overcast,10,2012-12-17 14:39:00
10:00 AM,50.0,46.4,87,29.88,4.0,ENE,3.5,-,N/A,,Overcast,60,2012-12-17 15:00:00
10:24 AM,50.0,46.4,87,29.86,2.0,NE,3.5,-,N/A,,Overcast,50,2012-12-17 15:24:00
10:45 AM,50.0,46.4,87,29.86,2.5,East,4.6,-,N/A,,Overcast,80,2012-12-17 15:45:00
11:06 AM,50.0,46.4,87,29.86,2.0,East,3.5,-,N/A,,Overcast,80,2012-12-17 16:06:00
11:27 AM,50.0,46.4,87,29.85,1.5,East,6.9,-,N/A,,Overcast,100,2012-12-17 16:27:00
11:48 AM,48.2,46.4,93,29.83,1.0,East,9.2,-,N/A,,Overcast,90,2012-12-17 16:48:00
12:09 PM,48.2,46.4,93,29.83,0.2,East,3.5,-,N/A,,Overcast,100,2012-12-17 17:09:00
12:30 PM,48.2,46.4,93,29.83,0.5,Calm,Calm,-,N/A,,Overcast,0,2012-12-17 17:30:00
12:51 PM,48.2,46.4,93,29.82,0.5,Calm,Calm,-,N/A,,Overcast,0,2012-12-17 17:51:00
1:12 PM,48.2,46.4,93,29.80,0.2,ENE,3.5,-,N/A,,Overcast,70,2012-12-17 18:12:00
1:33 PM,46.4,46.4,100,29.79,0.2,East,4.6,-,N/A,,Overcast,80,2012-12-17 18:33:00
1:54 PM,48.2,46.4,93,29.78,0.2,East,4.6,-,N/A,,Overcast,80,2012-12-17 18:54:00
2:15 PM,46.4,46.4,100,29.77,0.2,ENE,5.8,-,N/A,,Overcast,70,2012-12-17 19:15:00
2:39 PM,46.4,46.4,100,29.77,0.5,ENE,4.6,-,N/A,,Overcast,70,2012-12-17 19:39:00
3:00 PM,46.4,46.4,100,29.78,0.2,East,4.6,-,N/A,,Overcast,80,2012-12-17 20:00:00
3:21 PM,46.4,46.4,100,29.78,0.2,Calm,Calm,-,N/A,,Overcast,0,2012-12-17 20:21:00
7:15 PM,46.4,46.4,100,29.69,0.8,ESE,5.8,-,N/A,,Overcast,120,2012-12-18 00:15:00
7:36 PM,50.0,48.2,94,29.68,1.5,ESE,6.9,-,N/A,,Overcast,120,2012-12-18 00:36:00
7:57 PM,50.0,48.2,94,29.67,2.0,ESE,6.9,-,N/A,,Overcast,120,2012-12-18 00:57:00
8:18 PM,50.0,48.2,94,29.68,1.8,SE,5.8,-,N/A,,Overcast,130,2012-12-18 01:18:00
8:39 PM,50.0,48.2,94,29.65,1.0,ESE,6.9,-,N/A,,Overcast,110,2012-12-18 01:39:00
9:00 PM,50.0,48.2,94,29.64,1.0,ESE,6.9,-,N/A,,Overcast,110,2012-12-18 02:00:00
9:21 PM,50.0,48.2,94,29.62,1.2,SE,5.8,-,N/A,,Overcast,130,2012-12-18 02:21:00
9:42 PM,50.0,50.0,100,29.62,1.0,ESE,4.6,-,N/A,,Overcast,120,2012-12-18 02:42:00
10:03 PM,50.0,50.0,100,29.61,2.0,SSE,8.1,-,N/A,,Overcast,150,2012-12-18 03:03:00
10:24 PM,51.8,50.0,94,29.60,2.5,SSE,6.9,-,N/A,,Overcast,150,2012-12-18 03:24:00
10:45 PM,51.8,50.0,94,29.59,2.5,SSE,8.1,-,N/A,,Overcast,160,2012-12-18 03:45:00
11:09 PM,51.8,50.0,94,29.59,1.8,SSE,6.9,-,N/A,,Overcast,160,2012-12-18 04:09:00
11:51 PM,51.8,50.0,94,29.58,4.0,South,3.5,-,N/A,,Overcast,190,2012-12-18 04:51:00